Wind_Speed
13 14 15 15 16 17 17 18 18 19 20 19 18 18 18 18 17 16 15 15 14 14 14 14 14 14 14 15 15 16 16 16 16 17 17 18 19 19 18 18 18 19 19
13 12 13 13 13 14 14 15 15 16 17 17 17 18 18 18 17 16 15 15 14 14 14 15 15 15 15 16 17 17 18 18 19 19 20 21 21 21 21 21 21 21 21
10 9 9 10 10 11 11 11 11 11 12 13 14 15 16 16 16 16 15 15 14 14 14 15 15 15 16 16 17 18 19 20 21 22 22 23 23 24 24 23 23 24 24
8 7 8 8 8 7 8 8 8 8 9 10 11 12 13 14 14 14 14 14 14 14 15 15 15 16 16 17 17 18 19 21 22 23 23 23 23 24 25 25 25 26 26
6 7 7 7 7 7 7 8 8 8 8 8 9 10 11 11 12 12 12 12 12 13 13 14 14 15 16 16 17 18 19 20 21 22 23 22 22 25 23 23 24 25 26
6 7 7 7 7 7 7 7 7 7 8 8 8 9 9 9 9 9 10 10 11 11 12 13 13 14 15 16 17 18 18 19 20 20 21 19 21 23 22 22 22 23 24
6 7 7 7 7 6 6 6 6 7 8 8 9 9 9 9 9 10 10 10 11 12 12 13 14 15 15 16 17 17 18 19 20 20 20 19 21 23 22 22 22 22 23
6 7 7 7 7 6 6 6 7 7 8 9 10 10 11 11 11 11 12 12 13 13 14 14 15 16 17 17 18 19 19 20 21 22 21 21 23 23 23 23 23 23 24
6 7 7 7 7 7 8 8 8 9 10 10 11 12 12 13 13 13 14 14 14 14 15 15 16 17 17 18 19 20 20 22 23 23 21 21 24 24 24 24 25 25 25
7 7 7 7 8 8 9 9 10 10 11 12 12 13 13 14 14 14 14 14 14 14 15 15 16 17 18 18 19 20 21 22 23 23 19 21 23 24 25 25 26 26 27
8 7 7 8 8 9 10 10 10 11 11 12 12 13 13 13 13 13 13 13 13 14 15 15 16 16 16 17 18 18 19 20 22 22 20 21 23 24 25 26 27 28 29
11 9 8 9 10 10 11 12 12 12 12 13 13 13 13 13 13 13 13 14 14 14 14 14 14 14 14 15 16 17 18 21 23 23 21 23 25 27 28 29 30 32 33
13 12 12 12 12 12 13 14 14 14 14 13 13 13 13 13 12 12 13 13 13 13 14 14 14 14 15 15 17 18 20 22 25 27 25 25 28 30 32 34 35 36 37
14 15 15 15 16 16 16 16 16 16 15 14 14 14 14 14 13 13 13 14 14 14 15 15 16 16 17 19 19 21 22 24 27 29 29 29 30 33 35 37 39 40 41
16 17 18 18 18 19 19 18 18 18 17 16 16 15 15 14 14 15 15 16 16 16 17 18 19 19 20 21 22 24 25 27 29 32 32 33 34 35 38 40 42 44 45
18 19 20 20 21 21 21 21 21 20 20 19 18 18 18 16 17 17 17 18 19 20 21 22 22 23 24 25 27 29 30 32 33 36 37 38 39 41 42 44 46 48 49
20 21 23 22 23 23 24 24 24 24 24 23 22 21 21 20 20 21 21 21 22 23 24 26 28 28 30 31 33 35 37 38 39 41 43 45 45 46 47 48 50 52 54
22 22 25 25 25 26 27 28 28 28 28 28 27 26 26 25 24 24 24 25 27 27 28 30 32 33 36 37 39 41 43 44 45 47 48 50 52 53 53 54 55 56 58
25 25 27 29 28 30 30 31 32 33 33 33 32 31 30 29 29 28 27 28 30 31 32 34 36 38 40 42 44 46 48 50 51 53 54 56 57 58 59 60 60 61 62
29 28 29 32 31 32 34 35 36 37 38 38 37 38 35 33 32 31 30 31 33 34 36 37 39 42 44 46 48 50 52 54 56 57 59 60 62 63 64 64 65 65 65
32 30 31 34 34 35 36 38 40 41 42 42 40 40 38 35 34 34 33 34 36 39 40 41 43 45 48 50 51 53 54 56 58 60 62 63 65 66 66 67 67 67 66
34 34 34 36 37 38 39 41 43 44 45 44 43 42 40 36 35 35 37 38 39 41 43 44 46 48 50 53 55 56 56 58 60 62 63 65 66 67 67 67 67 66 64
41 39 38 38 39 40 41 43 45 47 47 46 45 43 41 40 38 38 39 41 42 44 45 47 48 50 52 54 56 57 58 58 59 61 64 66 67 67 67 67 66 66 64
43 41 41 40 39 40 42 45 46 47 48 48 47 45 43 42 41 40 41 42 45 46 46 47 48 51 52 54 56 58 59 60 60 61 63 65 65 65 66 66 65 63 61
42 42 41 40 40 42 44 45 46 47 48 47 47 46 45 44 43 42 42 44 45 46 47 49 51 53 55 56 58 60 61 62 63 63 63 64 65 65 66 66 64 61 59
40 40 40 40 41 43 44 46 46 47 48 47 47 47 46 46 45 44 45 46 48 49 50 51 53 55 57 59 60 61 62 63 64 64 64 65 66 67 67 66 64 61 59
Wind_Direction
280 276 272 269 265 261 258 257 253 248 245 244 247 250 253 255 257 258 257 256 254 254 255 256 257 259 262 263 265 266 266 265 263 262 262 262 264 265 267 270 272 273 273
282 278 275 271 266 264 263 260 254 248 244 243 245 248 250 252 254 255 255 254 253 254 254 255 256 259 261 263 265 266 266 267 267 266 266 266 267 268 269 271 273 274 275
285 286 282 277 271 268 268 266 261 252 246 243 244 246 247 249 251 252 253 253 255 255 256 256 258 259 261 264 265 266 267 267 267 267 268 269 271 271 270 271 273 274 273
293 295 294 290 284 281 281 279 274 266 257 250 247 246 245 247 250 252 254 255 256 257 258 260 262 263 263 264 265 266 267 267 268 268 269 271 274 273 271 271 272 273 273
301 300 302 302 298 293 289 285 279 274 267 259 253 251 252 253 254 255 255 255 256 258 259 261 262 263 265 266 266 268 270 271 272 273 273 273 274 277 278 277 276 276 275
318 312 309 308 303 296 292 286 279 276 272 267 262 259 258 257 256 255 254 256 258 259 260 262 264 266 268 270 271 273 275 277 278 279 280 282 281 281 282 282 281 279 279
336 329 326 319 310 298 290 284 278 275 272 270 267 264 263 263 263 263 263 263 265 266 267 267 269 271 273 275 277 278 279 282 284 284 285 288 287 288 289 288 287 285 283
350 348 345 339 326 314 301 290 282 274 269 268 268 268 269 271 271 271 271 272 272 271 270 270 271 273 275 277 280 280 282 285 287 287 288 292 291 292 292 292 291 290 287
356 355 354 348 336 322 312 302 291 284 279 277 276 275 276 276 276 275 275 275 274 273 272 271 272 274 276 278 280 281 282 284 285 285 289 291 289 291 292 292 291 289 287
354 351 348 342 336 327 317 309 303 296 292 287 283 280 279 278 278 277 276 275 275 274 274 273 274 276 277 278 280 280 281 282 283 284 290 287 286 287 288 288 288 288 287
346 344 338 334 333 329 323 317 312 305 299 295 291 288 285 284 283 281 279 276 276 277 277 276 277 278 278 278 278 279 280 282 283 286 287 286 286 286 286 286 285 285 283
342 338 335 332 332 330 325 321 316 311 305 302 298 295 293 291 288 285 282 279 281 282 281 280 280 279 280 281 280 281 283 285 286 287 289 288 288 288 287 286 284 283 281
340 337 335 333 329 327 324 321 318 315 310 308 305 303 301 300 299 297 293 289 287 286 285 285 285 286 286 283 282 283 285 285 287 289 290 288 288 288 287 287 285 284 282
336 337 336 335 330 326 323 320 318 314 311 310 308 307 307 307 307 307 305 301 297 293 290 289 288 288 287 286 286 286 287 287 288 289 291 291 290 289 288 287 286 285 284
329 329 330 332 329 326 322 319 317 314 310 308 306 305 305 305 305 305 305 302 300 297 294 291 290 288 286 286 287 288 289 290 290 291 291 291 291 290 290 289 288 287 286
320 320 321 324 323 322 319 316 314 311 308 305 302 300 299 299 298 297 298 297 296 294 292 290 288 287 286 286 287 288 289 290 291 292 292 291 290 290 289 288 288 287 286
313 313 312 314 315 314 313 312 310 309 306 303 300 296 293 292 291 291 291 291 290 288 288 288 287 288 287 286 287 288 289 290 292 291 291 290 289 288 288 287 287 286 285
306 307 306 306 309 307 306 305 305 305 303 300 297 294 290 288 287 287 289 289 288 288 288 287 287 288 288 288 288 289 289 290 290 290 290 289 288 288 288 287 285 285 285
300 303 301 300 301 300 300 300 300 301 301 299 296 293 287 285 285 286 288 290 290 291 291 290 290 290 289 289 290 290 290 289 289 289 289 288 288 288 287 286 285 285 284
294 297 296 295 296 295 295 295 296 297 298 299 295 296 289 283 283 285 286 289 291 293 293 293 292 291 291 291 290 290 290 289 288 288 288 288 288 288 287 287 286 285 284
292 293 292 291 291 290 291 291 292 293 294 296 296 294 296 289 284 284 285 288 291 292 292 293 292 291 290 289 289 289 288 287 286 286 286 286 286 286 286 286 286 286 285
290 292 290 288 287 287 287 288 288 289 290 292 295 296 297 291 290 289 288 288 290 291 291 292 292 292 291 290 289 289 288 288 288 287 286 286 286 286 286 287 287 287 287
287 289 287 284 283 283 284 284 285 286 288 291 295 297 298 294 293 291 290 291 291 292 293 293 293 292 291 290 289 289 289 289 288 288 288 288 288 289 289 289 289 289 288
284 284 283 281 281 281 282 283 283 285 287 290 292 294 295 295 293 292 292 292 292 294 296 295 296 295 294 293 292 291 290 289 288 288 289 290 290 290 290 290 290 289 288
279 279 279 278 279 280 281 282 283 285 286 289 292 293 293 294 295 294 294 294 295 296 296 296 297 296 296 295 294 293 292 291 291 290 290 291 291 291 291 290 290 288 286
272 273 275 277 278 279 281 283 284 286 288 290 291 293 293 293 293 293 295 294 295 297 297 297 297 296 296 295 294 294 293 293 293 293 293 292 292 292 291 291 290 289 286
Height
5893 5892 5891 5891 5891 5890 5891 5891 5891 5891 5892 5893 5894 5894 5895 5896 5896 5897 5897 5897 5897 5897 5898 5898 5898 5898 5898 5898 5898 5899 5899 5900 5900 5900 5901 5901 5901 5902 5902 5903 5903 5903 5904
5890 5890 5889 5889 5888 5888 5888 5888 5888 5889 5889 5890 5891 5892 5893 5894 5894 5894 5894 5895 5895 5895 5895 5896 5896 5896 5896 5896 5896 5896 5897 5897 5897 5898 5898 5898 5898 5898 5899 5899 5900 5900 5901
5888 5888 5887 5887 5886 5886 5886 5886 5886 5886 5887 5888 5889 5889 5890 5891 5891 5892 5892 5892 5892 5892 5893 5893 5893 5893 5893 5894 5894 5894 5894 5894 5894 5894 5894 5895 5895 5895 5895 5896 5896 5897 5897
5887 5887 5886 5886 5885 5885 5885 5884 5884 5884 5885 5886 5886 5887 5888 5888 5889 5889 5889 5890 5890 5890 5890 5890 5890 5890 5891 5891 5891 5891 5891 5890 5890 5891 5891 5891 5891 5891 5892 5892 5892 5893 5893
5886 5886 5885 5885 5884 5884 5884 5883 5883 5883 5883 5884 5884 5885 5886 5886 5887 5887 5887 5887 5887 5887 5888 5887 5887 5887 5887 5887 5887 5887 5887 5887 5887 5887 5887 5888 5888 5887 5887 5888 5888 5888 5888
5885 5885 5884 5884 5883 5883 5883 5883 5882 5882 5882 5882 5883 5883 5883 5884 5884 5884 5884 5884 5885 5885 5885 5885 5884 5884 5884 5884 5884 5884 5883 5883 5883 5883 5883 5884 5883 5882 5883 5883 5883 5884 5884
5884 5884 5883 5883 5882 5882 5882 5882 5882 5882 5882 5881 5881 5881 5881 5882 5882 5882 5882 5882 5882 5882 5882 5882 5881 5881 5881 5880 5880 5880 5880 5879 5879 5880 5880 5880 5879 5878 5878 5879 5879 5879 5879
5884 5883 5882 5882 5882 5882 5881 5881 5881 5881 5880 5880 5880 5880 5879 5879 5880 5880 5879 5879 5879 5879 5879 5879 5878 5878 5878 5877 5877 5877 5876 5876 5875 5875 5876 5876 5874 5874 5874 5874 5874 5874 5874
5884 5883 5882 5882 5881 5881 5881 5880 5880 5879 5879 5878 5878 5878 5877 5877 5877 5877 5877 5876 5876 5876 5876 5875 5875 5875 5875 5874 5874 5873 5873 5872 5871 5871 5872 5872 5870 5869 5869 5869 5869 5869 5869
5883 5883 5882 5881 5881 5880 5880 5879 5879 5878 5877 5876 5876 5875 5875 5874 5874 5874 5873 5873 5873 5873 5873 5872 5872 5872 5871 5871 5870 5870 5869 5868 5867 5866 5868 5867 5866 5865 5865 5864 5864 5863 5863
5882 5882 5882 5881 5880 5879 5879 5878 5877 5876 5875 5874 5873 5873 5872 5872 5871 5871 5870 5870 5870 5870 5869 5869 5869 5868 5868 5867 5866 5866 5865 5864 5863 5862 5863 5862 5861 5861 5860 5859 5858 5858 5857
5881 5881 5880 5880 5879 5878 5877 5876 5875 5874 5873 5872 5871 5870 5869 5869 5868 5868 5867 5867 5866 5866 5865 5865 5864 5864 5863 5863 5862 5861 5861 5859 5857 5857 5858 5857 5856 5855 5854 5853 5852 5852 5851
5879 5879 5878 5878 5877 5877 5876 5874 5873 5872 5871 5870 5869 5867 5866 5866 5865 5864 5864 5863 5862 5862 5861 5861 5860 5860 5859 5859 5858 5857 5856 5855 5852 5850 5851 5851 5850 5848 5847 5846 5845 5844 5843
5878 5877 5876 5876 5875 5874 5873 5872 5871 5870 5869 5868 5866 5865 5864 5863 5862 5861 5860 5859 5859 5858 5858 5857 5856 5856 5855 5853 5852 5851 5850 5849 5847 5844 5844 5844 5843 5841 5839 5838 5837 5836 5835
5876 5876 5875 5874 5873 5872 5871 5870 5869 5868 5867 5866 5864 5863 5861 5860 5859 5858 5857 5855 5855 5854 5854 5853 5852 5851 5850 5848 5847 5845 5844 5842 5840 5838 5837 5835 5834 5833 5831 5829 5827 5826 5824
5874 5874 5873 5873 5872 5870 5869 5868 5867 5866 5864 5864 5862 5860 5859 5857 5856 5855 5854 5852 5851 5850 5849 5848 5847 5846 5845 5843 5842 5839 5838 5836 5834 5831 5828 5827 5825 5823 5821 5819 5817 5815 5813
5871 5871 5870 5870 5870 5868 5867 5865 5864 5863 5862 5861 5860 5858 5856 5854 5852 5851 5850 5848 5846 5845 5844 5842 5841 5840 5838 5837 5835 5833 5830 5828 5826 5823 5820 5817 5814 5813 5811 5808 5806 5803 5801
5868 5868 5867 5867 5867 5865 5864 5862 5861 5860 5859 5857 5856 5855 5852 5851 5849 5846 5845 5843 5841 5839 5838 5836 5835 5833 5830 5828 5826 5824 5821 5818 5815 5812 5809 5806 5803 5800 5798 5796 5793 5790 5788
5863 5864 5863 5862 5863 5861 5860 5858 5857 5855 5854 5853 5851 5850 5848 5846 5844 5842 5840 5837 5834 5833 5831 5829 5827 5825 5822 5819 5816 5813 5811 5808 5804 5800 5797 5793 5790 5787 5784 5781 5778 5776 5773
5859 5860 5859 5857 5858 5857 5855 5853 5852 5850 5848 5847 5845 5843 5841 5839 5837 5835 5834 5831 5827 5825 5823 5821 5818 5815 5812 5808 5805 5802 5799 5795 5792 5788 5784 5780 5776 5772 5768 5765 5762 5759 5756
5853 5854 5854 5852 5851 5851 5849 5848 5846 5844 5841 5840 5838 5835 5833 5831 5830 5827 5826 5824 5821 5817 5814 5812 5809 5805 5802 5797 5794 5791 5788 5783 5779 5775 5770 5766 5762 5758 5753 5749 5745 5742 5739
5846 5848 5848 5846 5845 5844 5842 5841 5839 5836 5834 5833 5831 5828 5826 5824 5822 5820 5818 5815 5812 5808 5805 5802 5798 5794 5790 5785 5781 5777 5775 5772 5765 5760 5755 5751 5747 5742 5738 5733 5729 5725 5722
5841 5841 5840 5839 5837 5836 5834 5833 5830 5828 5825 5824 5822 5820 5818 5815 5813 5811 5809 5805 5802 5798 5795 5791 5787 5783 5778 5773 5768 5763 5760 5756 5752 5747 5739 5734 5729 5725 5721 5716 5711 5708 5705
5834 5833 5832 5831 5829 5828 5826 5824 5822 5820 5818 5815 5814 5812 5809 5806 5804 5802 5799 5795 5791 5787 5783 5778 5774 5769 5765 5760 5754 5748 5744 5740 5736 5733 5727 5719 5714 5709 5705 5700 5695 5691 5688
5826 5824 5823 5822 5821 5819 5818 5816 5813 5811 5809 5806 5804 5802 5799 5796 5794 5791 5788 5784 5779 5775 5771 5766 5761 5756 5751 5746 5740 5734 5728 5723 5719 5715 5712 5706 5700 5694 5688 5683 5679 5675 5671
5817 5816 5814 5813 5812 5810 5809 5807 5805 5802 5800 5797 5794 5792 5788 5786 5783 5781 5777 5773 5768 5763 5759 5754 5749 5743 5737 5731 5725 5719 5713 5708 5702 5697 5694 5689 5684 5678 5672 5666 5662 5657 5654